| time (UTC) | temp F | wind direction | speed MPH | gust MPH | rain 1hr in | rain 24hr in | rain mn in | humidity % | barometer mb |
| 20260905191338 | 85 | 313 | 0.0 | 1.0 | 0.00 | 0.19 | 0.19 | 87 | 1013.2 |
| 20260905190835 | 85 | 313 | 1.0 | 1.0 | 0.00 | 0.20 | 0.19 | 86 | 1013.5 |
| 20260905190313 | 85 | 313 | 0.0 | 0.0 | 0.00 | 0.22 | 0.19 | 88 | 1013.5 |
| 20260905185720 | 86 | 313 | 0.0 | 0.0 | 0.00 | 0.24 | 0.19 | 87 | 1013.5 |
| 20260905185217 | 86 | 313 | 0.0 | 2.0 | 0.00 | 0.27 | 0.19 | 88 | 1013.5 |
| 20260905184714 | 86 | 313 | 0.0 | 2.0 | 0.00 | 0.31 | 0.19 | 88 | 1013.5 |
| 20260905183635 | 87 | 313 | 1.0 | 3.0 | 0.00 | 0.31 | 0.19 | 88 | 1013.5 |
| 20260905183132 | 86 | 357 | 1.0 | 3.0 | 0.00 | 0.31 | 0.19 | 88 | 1013.5 |
| 20260905182557 | 86 | 5 | 0.0 | 3.0 | 0.00 | 0.31 | 0.19 | 88 | 1013.9 |
| 20260905182053 | 85 | 0 | 1.0 | 4.0 | 0.00 | 0.31 | 0.19 | 86 | 1013.9 |
| 20260905181550 | 84 | 267 | 1.0 | 4.0 | 0.00 | 0.31 | 0.19 | 87 | 1013.9 |
| 20260905181047 | 84 | 267 | 1.0 | 4.0 | 0.00 | 0.31 | 0.19 | 90 | 1013.9 |
| 20260905180526 | 83 | 256 | 2.0 | 4.0 | 0.00 | 0.31 | 0.19 | 92 | 1014.2 |
| 20260905180004 | 82 | 284 | 1.0 | 2.0 | 0.00 | 0.31 | 0.19 | 91 | 1014.2 |
| 20260905175500 | 81 | 292 | 1.0 | 2.0 | 0.00 | 0.31 | 0.19 | 93 | 1014.2 |
| 20260905174958 | 80 | 294 | 1.0 | 1.0 | 0.00 | 0.31 | 0.19 | 92 | 1014.2 |
| 20260905174455 | 80 | 294 | 0.0 | 0.0 | 0.00 | 0.31 | 0.19 | 93 | 1014.2 |
| 20260905173952 | 80 | 294 | 0.0 | 0.0 | 0.00 | 0.31 | 0.19 | 93 | 1014.6 |
| 20260905173449 | 79 | 294 | 0.0 | 2.0 | 0.00 | 0.31 | 0.19 | 91 | 1014.6 |
| 20260905172946 | 80 | 294 | 0.0 | 8.0 | 0.01 | 0.31 | 0.19 | 90 | 1014.9 |
| 20260905172353 | 80 | 294 | 0.0 | 8.0 | 0.03 | 0.31 | 0.19 | 89 | 1014.9 |
| 20260905171850 | 80 | 232 | 0.0 | 8.0 | 0.06 | 0.31 | 0.19 | 88 | 1015.2 |
| 20260905171328 | 81 | 247 | 2.0 | 8.0 | 0.07 | 0.31 | 0.19 | 89 | 1015.2 |
| 20260905170825 | 83 | 244 | 2.0 | 4.0 | 0.09 | 0.31 | 0.19 | 91 | 1015.2 |
| 20260905170322 | 83 | 296 | 0.0 | 1.0 | 0.17 | 0.31 | 0.19 | 92 | 1014.9 |
| 20260905165759 | 83 | 296 | 1.0 | 2.0 | 0.19 | 0.31 | 0.19 | 93 | 1015.2 |
| 20260905165256 | 83 | 296 | 0.0 | 2.0 | 0.19 | 0.31 | 0.19 | 91 | 1014.9 |
| 20260905164753 | 83 | 296 | 0.0 | 2.0 | 0.19 | 0.31 | 0.19 | 91 | 1014.9 |
| 20260905164251 | 83 | 296 | 0.0 | 2.0 | 0.19 | 0.31 | 0.19 | 91 | 1014.9 |
| 20260905163747 | 84 | 297 | 0.0 | 3.0 | 0.19 | 0.31 | 0.19 | 89 | 1014.6 |
| 20260905163243 | 85 | 297 | 0.0 | 5.0 | 0.18 | 0.30 | 0.18 | 88 | 1014.6 |
| 20260905162740 | 86 | 297 | 0.0 | 5.0 | 0.18 | 0.30 | 0.18 | 87 | 1014.9 |
| 20260905162207 | 87 | 283 | 2.0 | 5.0 | 0.14 | 0.26 | 0.15 | 88 | 1014.9 |
| 20260905161633 | 87 | 259 | 3.0 | 5.0 | 0.13 | 0.25 | 0.13 | 87 | 1014.9 |
| 20260905161130 | 88 | 7 | 1.0 | 4.0 | 0.12 | 0.24 | 0.12 | 86 | 1014.9 |
| 20260905160609 | 88 | 10 | 1.0 | 5.0 | 0.07 | 0.19 | 0.07 | 85 | 1014.9 |
| 20260905160106 | 89 | 58 | 2.0 | 8.0 | 0.00 | 0.12 | 0.00 | 81 | 1014.6 |
| 20260905155602 | 89 | 37 | 2.0 | 8.0 | 0.00 | 0.12 | 0.00 | 82 | 1014.6 |
| 20260905155058 | 89 | 59 | 2.0 | 8.0 | 0.00 | 0.12 | 0.00 | 81 | 1014.6 |
| 20260905154525 | 89 | 53 | 2.0 | 8.0 | 0.00 | 0.12 | 0.00 | 79 | 1014.6 |
| 20260905154022 | 88 | 44 | 2.0 | 4.0 | 0.00 | 0.12 | 0.00 | 82 | 1014.6 |
| 20260905153519 | 88 | 36 | 0.0 | 2.0 | 0.00 | 0.12 | 0.00 | 81 | 1014.2 |
| 20260905153016 | 87 | 27 | 1.0 | 2.0 | 0.00 | 0.12 | 0.00 | 83 | 1014.6 |
| 20260905152513 | 87 | 299 | 1.0 | 3.0 | 0.00 | 0.12 | 0.00 | 84 | 1014.6 |
| 20260905152001 | 87 | 270 | 0.0 | 3.0 | 0.00 | 0.12 | 0.00 | 86 | 1014.6 |
| 20260905151457 | 86 | 270 | 0.0 | 3.0 | 0.00 | 0.12 | 0.00 | 84 | 1014.6 |
| 20260905150954 | 86 | 270 | 1.0 | 3.0 | 0.00 | 0.12 | 0.00 | 86 | 1014.6 |
| 20260905150423 | 85 | 273 | 2.0 | 3.0 | 0.00 | 0.12 | 0.00 | 86 | 1014.6 |
| 20260905145915 | 85 | 81 | 0.0 | 0.0 | 0.00 | 0.12 | 0.00 | 87 | 1014.6 |
| 20260905145341 | 84 | 81 | 0.0 | 0.0 | 0.00 | 0.12 | 0.00 | 87 | 1014.6 |
| 20260905144838 | 84 | 81 | 0.0 | 0.0 | 0.00 | 0.12 | 0.00 | 87 | 1014.6 |
| 20260905144335 | 84 | 81 | 0.0 | 0.0 | 0.00 | 0.12 | 0.00 | 88 | 1014.6 |
| 20260905143832 | 84 | 81 | 0.0 | 1.0 | 0.00 | 0.12 | 0.00 | 88 | 1014.6 |
| 20260905143329 | 84 | 81 | 0.0 | 1.0 | 0.00 | 0.12 | 0.00 | 89 | 1014.6 |
| 20260905142826 | 83 | 81 | 0.0 | 2.0 | 0.00 | 0.12 | 0.00 | 89 | 1014.6 |
| 20260905142322 | 83 | 81 | 0.0 | 2.0 | 0.00 | 0.12 | 0.00 | 90 | 1014.6 |
| 20260905141819 | 83 | 81 | 0.0 | 2.0 | 0.00 | 0.12 | 0.00 | 91 | 1014.6 |
| 20260905141245 | 83 | 81 | 1.0 | 2.0 | 0.00 | 0.12 | 0.00 | 91 | 1014.6 |
| 20260905140742 | 82 | 81 | 0.0 | 2.0 | 0.00 | 0.12 | 0.00 | 91 | 1014.2 |
| 20260905140239 | 82 | 81 | 1.0 | 2.0 | 0.00 | 0.12 | 0.00 | 92 | 1014.2 |
| 20260905135230 | 82 | 81 | 1.0 | 2.0 | 0.00 | 0.12 | 0.00 | 93 | 1014.2 |
| 20260905134727 | 81 | 81 | 0.0 | 2.0 | 0.00 | 0.12 | 0.00 | 94 | 1014.2 |
| 20260905134224 | 81 | 81 | 1.0 | 2.0 | 0.00 | 0.12 | 0.00 | 94 | 1014.2 |
| 20260905133721 | 81 | 81 | 0.0 | 1.0 | 0.00 | 0.12 | 0.00 | 95 | 1014.2 |
| 20260905133218 | 81 | 81 | 1.0 | 1.0 | 0.00 | 0.12 | 0.00 | 95 | 1014.2 |
| 20260905132637 | 81 | 81 | 0.0 | 1.0 | 0.00 | 0.12 | 0.00 | 95 | 1014.2 |
| 20260905132103 | 80 | 81 | 1.0 | 1.0 | 0.00 | 0.12 | 0.00 | 95 | 1014.2 |
| 20260905131600 | 80 | 81 | 1.0 | 1.0 | 0.00 | 0.12 | 0.00 | 95 | 1014.2 |
| 20260905131057 | 80 | 81 | 0.0 | 1.0 | 0.00 | 0.12 | 0.00 | 96 | 1014.2 |
| 20260905130522 | 79 | 81 | 0.0 | 0.0 | 0.00 | 0.12 | 0.00 | 96 | 1014.2 |
| 20260905130019 | 79 | 81 | 0.0 | 0.0 | 0.00 | 0.12 | 0.00 | 95 | 1014.2 |
| 20260905125516 | 79 | 81 | 0.0 | 0.0 | 0.00 | 0.12 | 0.00 | 95 | 1013.9 |
| 20260905125013 | 79 | 81 | 0.0 | 0.0 | 0.00 | 0.12 | 0.00 | 96 | 1013.9 |
| 20260905124510 | 78 | 81 | 0.0 | 0.0 | 0.00 | 0.12 | 0.00 | 95 | 1013.9 |
| 20260905124007 | 78 | 81 | 0.0 | 0.0 | 0.00 | 0.12 | 0.00 | 95 | 1013.5 |
| 20260905123503 | 78 | 81 | 0.0 | 0.0 | 0.00 | 0.12 | 0.00 | 95 | 1013.5 |
| 20260905123001 | 78 | 81 | 0.0 | 0.0 | 0.00 | 0.12 | 0.00 | 95 | 1013.5 |
| 20260905122457 | 78 | 81 | 0.0 | 0.0 | 0.00 | 0.12 | 0.00 | 95 | 1013.5 |
| 20260905121954 | 78 | 81 | 0.0 | 0.0 | 0.00 | 0.12 | 0.00 | 95 | 1013.5 |
| 20260905121432 | 78 | 81 | 0.0 | 0.0 | 0.00 | 0.12 | 0.00 | 95 | 1013.5 |
| 20260905120911 | 78 | 81 | 0.0 | 0.0 | 0.00 | 0.12 | 0.00 | 95 | 1013.5 |
| 20260905120408 | 78 | 81 | 0.0 | 0.0 | 0.00 | 0.12 | 0.00 | 95 | 1013.5 |
| 20260905115905 | 78 | 81 | 0.0 | 0.0 | 0.00 | 0.12 | 0.00 | 95 | 1013.2 |
| 20260905115259 | 78 | 81 | 0.0 | 0.0 | 0.00 | 0.12 | 0.00 | 95 | 1013.2 |
| 20260905114756 | 78 | 81 | 0.0 | 0.0 | 0.00 | 0.12 | 0.00 | 95 | 1013.2 |
| 20260905114215 | 78 | 81 | 0.0 | 0.0 | 0.00 | 0.12 | 0.00 | 95 | 1013.2 |
| 20260905113710 | 78 | 81 | 0.0 | 0.0 | 0.00 | 0.12 | 0.00 | 95 | 1013.2 |
| 20260905113206 | 78 | 81 | 0.0 | 0.0 | 0.00 | 0.12 | 0.00 | 95 | 1013.2 |
| 20260905112657 | 78 | 81 | 0.0 | 0.0 | 0.00 | 0.12 | 0.00 | 95 | 1013.2 |
| 20260905112154 | 78 | 81 | 0.0 | 0.0 | 0.00 | 0.12 | 0.00 | 95 | 1013.2 |
| 20260905111616 | 78 | 81 | 0.0 | 0.0 | 0.00 | 0.12 | 0.00 | 95 | 1012.9 |
| 20260905111042 | 78 | 81 | 0.0 | 0.0 | 0.00 | 0.12 | 0.00 | 95 | 1012.9 |
| 20260905110538 | 78 | 81 | 0.0 | 0.0 | 0.00 | 0.12 | 0.00 | 95 | 1012.9 |
| 20260905110036 | 78 | 81 | 0.0 | 0.0 | 0.00 | 0.12 | 0.00 | 95 | 1012.9 |
| 20260905105533 | 78 | 81 | 0.0 | 0.0 | 0.00 | 0.12 | 0.00 | 95 | 1012.9 |
| 20260905105030 | 78 | 81 | 0.0 | 0.0 | 0.00 | 0.12 | 0.00 | 95 | 1012.9 |
| 20260905104527 | 78 | 81 | 0.0 | 0.0 | 0.00 | 0.12 | 0.00 | 95 | 1012.9 |
| 20260905104024 | 78 | 81 | 0.0 | 0.0 | 0.00 | 0.12 | 0.00 | 95 | 1012.9 |
| 20260905103521 | 78 | 81 | 0.0 | 0.0 | 0.00 | 0.12 | 0.00 | 95 | 1012.9 |
| 20260905102928 | 78 | 81 | 0.0 | 0.0 | 0.00 | 0.12 | 0.00 | 95 | 1012.9 |
| 20260905102425 | 78 | 81 | 0.0 | 0.0 | 0.00 | 0.12 | 0.00 | 95 | 1012.9 |
| 20260905101922 | 78 | 81 | 0.0 | 0.0 | 0.00 | 0.12 | 0.00 | 95 | 1012.9 |
| 20260905101419 | 78 | 81 | 0.0 | 0.0 | 0.00 | 0.12 | 0.00 | 95 | 1012.9 |
| 20260905100916 | 79 | 81 | 0.0 | 0.0 | 0.00 | 0.12 | 0.00 | 95 | 1012.9 |
| 20260905100311 | 79 | 81 | 0.0 | 0.0 | 0.00 | 0.12 | 0.00 | 95 | 1012.9 |
| 20260905095807 | 79 | 81 | 0.0 | 0.0 | 0.00 | 0.12 | 0.00 | 95 | 1012.9 |
| 20260905095306 | 79 | 81 | 0.0 | 0.0 | 0.00 | 0.12 | 0.00 | 95 | 1012.9 |
| 20260905094802 | 78 | 81 | 0.0 | 0.0 | 0.00 | 0.12 | 0.00 | 95 | 1012.9 |
| 20260905094259 | 78 | 81 | 0.0 | 0.0 | 0.00 | 0.12 | 0.00 | 94 | 1012.9 |
| 20260905093756 | 78 | 81 | 0.0 | 0.0 | 0.00 | 0.12 | 0.00 | 94 | 1012.9 |
| 20260905093222 | 78 | 81 | 0.0 | 0.0 | 0.00 | 0.12 | 0.00 | 94 | 1012.9 |
| 20260905092647 | 78 | 81 | 0.0 | 0.0 | 0.00 | 0.12 | 0.00 | 94 | 1012.9 |
| 20260905092144 | 79 | 81 | 0.0 | 0.0 | 0.00 | 0.12 | 0.00 | 94 | 1012.9 |
| 20260905091642 | 78 | 81 | 0.0 | 0.0 | 0.00 | 0.12 | 0.00 | 94 | 1012.9 |
| 20260905091138 | 78 | 81 | 0.0 | 0.0 | 0.00 | 0.12 | 0.00 | 94 | 1012.9 |
| 20260905090636 | 78 | 81 | 0.0 | 0.0 | 0.00 | 0.12 | 0.00 | 94 | 1012.9 |
| 20260905090133 | 78 | 81 | 0.0 | 0.0 | 0.00 | 0.12 | 0.00 | 94 | 1012.9 |
| 20260905085630 | 78 | 81 | 0.0 | 0.0 | 0.00 | 0.12 | 0.00 | 94 | 1012.9 |
| 20260905085127 | 78 | 81 | 0.0 | 0.0 | 0.00 | 0.12 | 0.00 | 94 | 1012.9 |
| 20260905084624 | 78 | 81 | 0.0 | 0.0 | 0.00 | 0.12 | 0.00 | 94 | 1012.5 |
| 20260905084121 | 78 | 81 | 0.0 | 0.0 | 0.00 | 0.12 | 0.00 | 94 | 1012.5 |
| 20260905083559 | 78 | 81 | 0.0 | 0.0 | 0.00 | 0.12 | 0.00 | 94 | 1012.5 |
| 20260905083056 | 79 | 81 | 0.0 | 0.0 | 0.00 | 0.12 | 0.00 | 94 | 1012.5 |
| 20260905082554 | 79 | 81 | 0.0 | 0.0 | 0.00 | 0.12 | 0.00 | 94 | 1012.5 |
| 20260905082051 | 79 | 81 | 0.0 | 0.0 | 0.00 | 0.12 | 0.00 | 94 | 1012.5 |
| 20260905081517 | 79 | 81 | 0.0 | 0.0 | 0.00 | 0.12 | 0.00 | 94 | 1012.5 |
| 20260905080941 | 79 | 81 | 0.0 | 0.0 | 0.00 | 0.12 | 0.00 | 94 | 1012.5 |
| 20260905080436 | 79 | 81 | 0.0 | 0.0 | 0.00 | 0.12 | 0.00 | 94 | 1012.5 |
| 20260905075933 | 79 | 81 | 0.0 | 0.0 | 0.00 | 0.12 | 0.00 | 94 | 1012.5 |
| 20260905075426 | 79 | 81 | 0.0 | 0.0 | 0.00 | 0.12 | 0.00 | 94 | 1012.5 |
| 20260905074854 | 79 | 81 | 0.0 | 0.0 | 0.00 | 0.12 | 0.00 | 94 | 1012.5 |
| 20260905074324 | 79 | 81 | 0.0 | 0.0 | 0.00 | 0.12 | 0.00 | 94 | 1012.5 |
| 20260905073750 | 79 | 81 | 0.0 | 0.0 | 0.00 | 0.12 | 0.00 | 94 | 1012.5 |
| 20260905073145 | 79 | 81 | 0.0 | 0.0 | 0.00 | 0.12 | 0.00 | 94 | 1012.5 |
| 20260905072608 | 79 | 81 | 0.0 | 0.0 | 0.00 | 0.12 | 0.00 | 94 | 1012.9 |
| 20260905072105 | 79 | 81 | 0.0 | 0.0 | 0.00 | 0.12 | 0.00 | 94 | 1012.9 |
| 20260905071602 | 79 | 81 | 0.0 | 0.0 | 0.00 | 0.12 | 0.00 | 94 | 1012.9 |
| 20260905071059 | 79 | 81 | 0.0 | 0.0 | 0.00 | 0.12 | 0.00 | 94 | 1012.9 |
| 20260905070556 | 79 | 81 | 0.0 | 0.0 | 0.00 | 0.12 | 0.00 | 94 | 1012.9 |
| 20260905070015 | 79 | 81 | 0.0 | 0.0 | 0.00 | 0.12 | 0.00 | 94 | 1013.2 |
| 20260905065512 | 79 | 81 | 0.0 | 0.0 | 0.00 | 0.12 | 0.00 | 94 | 1013.2 |
| 20260905064938 | 79 | 81 | 0.0 | 0.0 | 0.00 | 0.12 | 0.00 | 93 | 1013.2 |
| 20260905064404 | 79 | 81 | 0.0 | 0.0 | 0.00 | 0.12 | 0.00 | 93 | 1013.2 |
| 20260905063900 | 79 | 81 | 0.0 | 0.0 | 0.00 | 0.12 | 0.00 | 93 | 1013.2 |
| 20260905063358 | 79 | 81 | 0.0 | 0.0 | 0.00 | 0.12 | 0.00 | 93 | 1013.2 |
| 20260905062823 | 79 | 81 | 0.0 | 0.0 | 0.00 | 0.12 | 0.00 | 93 | 1013.2 |
| 20260905062320 | 79 | 81 | 0.0 | 0.0 | 0.00 | 0.12 | 0.00 | 93 | 1013.2 |
| 20260905061817 | 80 | 81 | 0.0 | 0.0 | 0.00 | 0.12 | 0.00 | 93 | 1013.2 |
| 20260905061236 | 80 | 81 | 0.0 | 0.0 | 0.00 | 0.12 | 0.00 | 94 | 1013.5 |
| 20260905060714 | 80 | 81 | 0.0 | 0.0 | 0.00 | 0.12 | 0.00 | 93 | 1013.5 |
| 20260905060212 | 80 | 81 | 0.0 | 0.0 | 0.00 | 0.12 | 0.00 | 93 | 1013.2 |
| 20260905055433 | 80 | 81 | 0.0 | 0.0 | 0.00 | 0.12 | 0.00 | 93 | 1013.2 |
| 20260905054930 | 80 | 81 | 0.0 | 0.0 | 0.00 | 0.12 | 0.00 | 93 | 1013.5 |
| 20260905054427 | 80 | 81 | 0.0 | 0.0 | 0.00 | 0.12 | 0.00 | 93 | 1013.5 |
| 20260905053925 | 80 | 81 | 0.0 | 0.0 | 0.00 | 0.12 | 0.00 | 93 | 1013.5 |
| 20260905053422 | 80 | 81 | 0.0 | 0.0 | 0.00 | 0.12 | 0.00 | 93 | 1013.5 |
| 20260905052920 | 80 | 81 | 0.0 | 0.0 | 0.00 | 0.12 | 0.00 | 93 | 1013.5 |
| 20260905052417 | 80 | 81 | 0.0 | 0.0 | 0.00 | 0.12 | 0.00 | 93 | 1013.5 |
| 20260905051913 | 80 | 81 | 0.0 | 0.0 | 0.00 | 0.12 | 0.12 | 93 | 1013.5 |
| 20260905051411 | 80 | 81 | 0.0 | 0.0 | 0.00 | 0.12 | 0.12 | 93 | 1013.5 |
| 20260905050908 | 80 | 81 | 0.0 | 0.0 | 0.00 | 0.12 | 0.12 | 93 | 1013.5 |
| 20260905050405 | 80 | 81 | 0.0 | 0.0 | 0.00 | 0.12 | 0.12 | 93 | 1013.2 |
| 20260905045830 | 80 | 81 | 0.0 | 0.0 | 0.00 | 0.12 | 0.12 | 93 | 1013.5 |
| 20260905045255 | 80 | 81 | 0.0 | 0.0 | 0.00 | 0.12 | 0.12 | 93 | 1013.5 |
| 20260905044752 | 80 | 81 | 0.0 | 0.0 | 0.00 | 0.12 | 0.12 | 93 | 1013.5 |
| 20260905044218 | 80 | 81 | 0.0 | 0.0 | 0.00 | 0.12 | 0.12 | 93 | 1013.5 |
| 20260905043642 | 81 | 81 | 0.0 | 0.0 | 0.00 | 0.12 | 0.12 | 93 | 1013.5 |
| 20260905043139 | 81 | 81 | 0.0 | 0.0 | 0.00 | 0.12 | 0.12 | 92 | 1013.5 |
| 20260905042636 | 81 | 81 | 0.0 | 0.0 | 0.00 | 0.12 | 0.12 | 92 | 1013.5 |
| 20260905042101 | 81 | 81 | 0.0 | 0.0 | 0.00 | 0.12 | 0.12 | 92 | 1013.5 |
| 20260905041555 | 81 | 81 | 0.0 | 0.0 | 0.00 | 0.12 | 0.12 | 92 | 1013.9 |
| 20260905041020 | 81 | 81 | 0.0 | 0.0 | 0.00 | 0.12 | 0.12 | 92 | 1013.5 |
| 20260905040517 | 81 | 81 | 0.0 | 0.0 | 0.00 | 0.12 | 0.12 | 92 | 1013.5 |
| 20260905040014 | 81 | 81 | 0.0 | 0.0 | 0.00 | 0.12 | 0.12 | 92 | 1013.9 |
| 20260905035440 | 81 | 81 | 0.0 | 0.0 | 0.00 | 0.12 | 0.12 | 92 | 1013.9 |
| 20260905034937 | 81 | 81 | 0.0 | 0.0 | 0.00 | 0.12 | 0.12 | 92 | 1013.9 |
| 20260905034435 | 81 | 81 | 0.0 | 0.0 | 0.00 | 0.12 | 0.12 | 92 | 1013.9 |
| 20260905033900 | 81 | 81 | 0.0 | 0.0 | 0.00 | 0.12 | 0.12 | 92 | 1013.9 |
| 20260905033357 | 81 | 81 | 0.0 | 0.0 | 0.00 | 0.12 | 0.12 | 92 | 1013.9 |
| 20260905032855 | 81 | 81 | 0.0 | 0.0 | 0.00 | 0.12 | 0.12 | 92 | 1013.9 |
| 20260905032321 | 81 | 81 | 0.0 | 0.0 | 0.00 | 0.12 | 0.12 | 92 | 1013.9 |
| 20260905031817 | 81 | 81 | 0.0 | 0.0 | 0.00 | 0.12 | 0.12 | 91 | 1013.9 |
| 20260905031314 | 81 | 81 | 0.0 | 0.0 | 0.00 | 0.12 | 0.12 | 91 | 1013.9 |
| 20260905030811 | 81 | 81 | 0.0 | 0.0 | 0.00 | 0.12 | 0.12 | 91 | 1013.9 |
| 20260905030248 | 81 | 81 | 0.0 | 0.0 | 0.00 | 0.12 | 0.12 | 91 | 1013.9 |
| 20260905025623 | 82 | 81 | 0.0 | 0.0 | 0.00 | 0.12 | 0.12 | 91 | 1013.9 |
| 20260905025101 | 82 | 81 | 0.0 | 0.0 | 0.00 | 0.12 | 0.12 | 91 | 1013.9 |
| 20260905024557 | 82 | 81 | 0.0 | 0.0 | 0.00 | 0.12 | 0.12 | 91 | 1013.5 |
| 20260905024035 | 82 | 81 | 0.0 | 0.0 | 0.00 | 0.12 | 0.12 | 91 | 1013.5 |
| 20260905023516 | 82 | 81 | 0.0 | 0.0 | 0.00 | 0.12 | 0.12 | 90 | 1013.5 |
| 20260905022839 | 82 | 81 | 0.0 | 0.0 | 0.00 | 0.12 | 0.12 | 90 | 1013.5 |
| 20260905022336 | 82 | 81 | 0.0 | 0.0 | 0.00 | 0.12 | 0.12 | 90 | 1013.5 |
| 20260905021800 | 82 | 81 | 0.0 | 0.0 | 0.00 | 0.12 | 0.12 | 90 | 1013.5 |
| 20260905021226 | 82 | 81 | 0.0 | 0.0 | 0.00 | 0.12 | 0.12 | 90 | 1013.5 |
| 20260905020722 | 82 | 81 | 0.0 | 0.0 | 0.00 | 0.12 | 0.12 | 89 | 1013.2 |
| 20260905020219 | 82 | 81 | 0.0 | 0.0 | 0.00 | 0.12 | 0.12 | 89 | 1013.2 |
| 20260905015716 | 82 | 81 | 0.0 | 0.0 | 0.00 | 0.12 | 0.12 | 89 | 1013.2 |
| 20260905015214 | 83 | 81 | 0.0 | 0.0 | 0.00 | 0.12 | 0.12 | 89 | 1013.2 |
| 20260905014711 | 83 | 81 | 0.0 | 0.0 | 0.00 | 0.12 | 0.12 | 89 | 1013.2 |
| 20260905014207 | 83 | 81 | 0.0 | 0.0 | 0.00 | 0.12 | 0.12 | 89 | 1013.2 |
| 20260905013704 | 83 | 81 | 0.0 | 0.0 | 0.00 | 0.12 | 0.12 | 89 | 1013.2 |
| 20260905013201 | 83 | 81 | 0.0 | 0.0 | 0.00 | 0.12 | 0.12 | 89 | 1013.2 |
| 20260905012659 | 83 | 81 | 0.0 | 0.0 | 0.00 | 0.12 | 0.12 | 88 | 1013.2 |
| 20260905012156 | 83 | 81 | 0.0 | 0.0 | 0.00 | 0.12 | 0.12 | 88 | 1013.2 |
| 20260905011652 | 83 | 81 | 0.0 | 0.0 | 0.00 | 0.12 | 0.12 | 88 | 1012.9 |
| 20260905011149 | 84 | 81 | 0.0 | 0.0 | 0.00 | 0.12 | 0.12 | 88 | 1012.9 |
| 20260905010646 | 84 | 81 | 0.0 | 0.0 | 0.00 | 0.12 | 0.12 | 88 | 1012.9 |
| 20260905010124 | 84 | 81 | 0.0 | 1.0 | 0.00 | 0.12 | 0.12 | 88 | 1012.9 |
| 20260905005621 | 84 | 81 | 0.0 | 1.0 | 0.00 | 0.12 | 0.12 | 88 | 1012.9 |
| 20260905005100 | 84 | 81 | 0.0 | 1.0 | 0.00 | 0.12 | 0.12 | 87 | 1012.9 |
| 20260905004557 | 85 | 81 | 1.0 | 1.0 | 0.00 | 0.12 | 0.12 | 87 | 1012.5 |
| 20260905004054 | 85 | 81 | 0.0 | 1.0 | 0.00 | 0.12 | 0.12 | 87 | 1012.5 |
| 20260905003550 | 85 | 81 | 0.0 | 1.0 | 0.00 | 0.12 | 0.12 | 87 | 1012.5 |
| 20260905003028 | 85 | 81 | 1.0 | 2.0 | 0.00 | 0.12 | 0.12 | 87 | 1012.5 |
| 20260905002454 | 85 | 81 | 0.0 | 2.0 | 0.00 | 0.12 | 0.12 | 87 | 1012.5 |
| 20260905001950 | 86 | 81 | 0.0 | 2.0 | 0.00 | 0.12 | 0.12 | 87 | 1012.5 |
| 20260905001447 | 86 | 81 | 1.0 | 5.0 | 0.00 | 0.12 | 0.12 | 86 | 1012.5 |
| 20260905000930 | 86 | 81 | 1.0 | 5.0 | 0.00 | 0.12 | 0.12 | 86 | 1012.5 |
| 20260905000355 | 87 | 81 | 1.0 | 5.0 | 0.00 | 0.12 | 0.12 | 85 | 1012.5 |
| 20260904235834 | 87 | 254 | 1.0 | 2.0 | 0.00 | 0.12 | 0.12 | 85 | 1012.5 |
| 20260904235331 | 87 | 327 | 1.0 | 2.0 | 0.00 | 0.12 | 0.12 | 84 | 1012.5 |
| 20260904234757 | 87 | 237 | 1.0 | 2.0 | 0.00 | 0.12 | 0.12 | 85 | 1012.5 |
| 20260904234235 | 87 | 237 | 1.0 | 3.0 | 0.00 | 0.12 | 0.12 | 85 | 1012.5 |
| 20260904233732 | 88 | 233 | 1.0 | 3.0 | 0.00 | 0.12 | 0.12 | 85 | 1012.5 |
| 20260904233210 | 88 | 233 | 1.0 | 3.0 | 0.00 | 0.12 | 0.12 | 85 | 1012.5 |
| 20260904232707 | 88 | 236 | 1.0 | 3.0 | 0.00 | 0.12 | 0.12 | 84 | 1012.5 |
| 20260904232204 | 88 | 5 | 1.0 | 3.0 | 0.00 | 0.12 | 0.12 | 84 | 1012.5 |
| 20260904231701 | 88 | 6 | 1.0 | 3.0 | 0.00 | 0.12 | 0.12 | 84 | 1012.5 |
| 20260904231158 | 89 | 10 | 2.0 | 3.0 | 0.00 | 0.12 | 0.12 | 83 | 1012.5 |
| 20260904230032 | 89 | 182 | 1.0 | 2.0 | 0.00 | 0.12 | 0.12 | 83 | 1012.5 |
| 20260904225520 | 89 | 171 | 1.0 | 2.0 | 0.00 | 0.12 | 0.12 | 83 | 1012.5 |
| 20260904225016 | 89 | 191 | 1.0 | 2.0 | 0.00 | 0.12 | 0.12 | 82 | 1012.5 |
| 20260904224500 | 89 | 340 | 0.0 | 2.0 | 0.00 | 0.12 | 0.12 | 83 | 1012.5 |
| 20260904223945 | 89 | 356 | 1.0 | 4.0 | 0.00 | 0.12 | 0.12 | 83 | 1012.5 |
| 20260904223442 | 89 | 36 | 1.0 | 4.0 | 0.00 | 0.12 | 0.12 | 81 | 1012.5 |
| 20260904222907 | 89 | 12 | 1.0 | 4.0 | 0.00 | 0.12 | 0.12 | 82 | 1012.5 |
| 20260904222404 | 89 | 335 | 2.0 | 3.0 | 0.00 | 0.12 | 0.12 | 83 | 1012.5 |
| 20260904221901 | 88 | 331 | 1.0 | 2.0 | 0.00 | 0.12 | 0.12 | 83 | 1012.5 |
| 20260904221358 | 88 | 331 | 1.0 | 2.0 | 0.00 | 0.12 | 0.12 | 83 | 1012.2 |
| 20260904220854 | 88 | 331 | 1.0 | 2.0 | 0.00 | 0.12 | 0.12 | 82 | 1012.2 |
| 20260904220319 | 88 | 294 | 1.0 | 3.0 | 0.00 | 0.12 | 0.12 | 83 | 1012.5 |
| 20260904215757 | 89 | 302 | 0.0 | 4.0 | 0.00 | 0.12 | 0.12 | 84 | 1012.5 |
| 20260904215254 | 89 | 302 | 1.0 | 5.0 | 0.00 | 0.12 | 0.12 | 83 | 1012.5 |
| 20260904214751 | 89 | 59 | 1.0 | 5.0 | 0.00 | 0.12 | 0.12 | 82 | 1012.5 |
| 20260904214247 | 89 | 281 | 2.0 | 6.0 | 0.00 | 0.12 | 0.12 | 82 | 1012.5 |
| 20260904213745 | 89 | 276 | 1.0 | 6.0 | 0.00 | 0.12 | 0.12 | 84 | 1012.5 |
| 20260904213241 | 88 | 67 | 3.0 | 6.0 | 0.00 | 0.12 | 0.12 | 84 | 1012.9 |
| 20260904212738 | 88 | 46 | 2.0 | 5.0 | 0.00 | 0.12 | 0.12 | 85 | 1012.9 |
| 20260904212203 | 87 | 54 | 2.0 | 4.0 | 0.00 | 0.12 | 0.12 | 85 | 1012.9 |
| 20260904211558 | 86 | 35 | 2.0 | 4.0 | 0.00 | 0.12 | 0.12 | 85 | 1012.9 |
| 20260904211055 | 86 | 20 | 1.0 | 2.0 | 0.00 | 0.12 | 0.12 | 88 | 1012.9 |
| 20260904210536 | 85 | 29 | 1.0 | 3.0 | 0.00 | 0.12 | 0.12 | 86 | 1012.9 |
| 20260904210014 | 86 | 46 | 0.0 | 3.0 | 0.00 | 0.12 | 0.12 | 87 | 1013.2 |
| 20260904205511 | 86 | 53 | 0.0 | 3.0 | 0.00 | 0.12 | 0.12 | 88 | 1013.2 |
| 20260904205008 | 86 | 52 | 2.0 | 4.0 | 0.00 | 0.12 | 0.12 | 86 | 1013.2 |
| 20260904204434 | 86 | 65 | 1.0 | 4.0 | 0.00 | 0.12 | 0.12 | 87 | 1013.2 |
| 20260904203931 | 85 | 75 | 1.0 | 4.0 | 0.00 | 0.12 | 0.12 | 88 | 1013.2 |
| 20260904203408 | 84 | 28 | 2.0 | 4.0 | 0.00 | 0.12 | 0.12 | 89 | 1013.2 |
| 20260904202904 | 84 | 37 | 1.0 | 3.0 | 0.00 | 0.12 | 0.12 | 91 | 1013.2 |
| 20260904202401 | 84 | 108 | 1.0 | 3.0 | 0.00 | 0.12 | 0.12 | 91 | 1013.5 |
| 20260904201858 | 83 | 108 | 0.0 | 3.0 | 0.00 | 0.12 | 0.12 | 91 | 1013.5 |
| 20260904201353 | 82 | 108 | 1.0 | 3.0 | 0.00 | 0.13 | 0.12 | 89 | 1013.5 |
| 20260904200818 | 82 | 227 | 1.0 | 2.0 | 0.01 | 0.13 | 0.12 | 90 | 1013.9 |
| 20260904200256 | 82 | 226 | 0.0 | 2.0 | 0.03 | 0.15 | 0.12 | 90 | 1013.5 |
| 20260904195737 | 82 | 226 | 0.0 | 3.0 | 0.05 | 0.19 | 0.12 | 89 | 1013.5 |
| 20260904195234 | 83 | 226 | 0.0 | 3.0 | 0.08 | 0.22 | 0.12 | 88 | 1013.5 |
| 20260904194700 | 83 | 226 | 0.0 | 3.0 | 0.12 | 0.25 | 0.12 | 88 | 1013.9 |
| 20260904194139 | 83 | 226 | 1.0 | 6.0 | 0.12 | 0.26 | 0.12 | 91 | 1013.9 |
| 20260904193636 | 83 | 225 | 0.0 | 6.0 | 0.12 | 0.28 | 0.12 | 91 | 1013.9 |
| 20260904193102 | 82 | 225 | 0.0 | 11.0 | 0.12 | 0.28 | 0.12 | 90 | 1013.9 |
| 20260904192559 | 81 | 260 | 3.0 | 11.0 | 0.12 | 0.28 | 0.12 | 90 | 1014.2 |
| 20260904192056 | 81 | 264 | 2.0 | 11.0 | 0.12 | 0.28 | 0.12 | 90 | 1014.2 |
| 20260904191521 | 81 | 256 | 5.0 | 11.0 | 0.12 | 0.28 | 0.12 | 88 | 1014.2 |